| time (UTC) | temp F | wind direction | speed knots | gust knots | rain 1hr in | rain 24hr in | rain mn in | humidity % | barometer mb |
| 20260502151538 | 67 | 247 | 6.1 | 10.4 | 0.00 | 0.00 | 0.00 | 59 | 1013.1 |
| 20260502123040 | 66 | 252 | 4.3 | 9.6 | 0.00 | 0.00 | 0.00 | 64 | 1014.3 |
| 20260502121537 | 66 | 308 | 4.3 | 9.6 | 0.00 | 0.00 | 0.00 | 65 | 1014.3 |
| 20260502114530 | 65 | 227 | 5.2 | 9.6 | 0.00 | 0.00 | 0.00 | 67 | 1014.4 |
| 20260502113028 | 64 | 319 | 5.2 | 9.6 | 0.00 | 0.00 | 0.00 | 69 | 1014.4 |
| 20260502111524 | 64 | 229 | 4.3 | 10.4 | 0.00 | 0.00 | 0.00 | 71 | 1014.7 |
| 20260502110021 | 63 | 287 | 7.0 | 12.2 | 0.00 | 0.00 | 0.00 | 71 | 1014.8 |
| 20260502104523 | 63 | 254 | 4.3 | 7.8 | 0.00 | 0.00 | 0.00 | 73 | 1014.7 |
| 20260502103016 | 62 | 284 | 5.2 | 13.0 | 0.00 | 0.00 | 0.00 | 71 | 1014.8 |
| 20260502101532 | 61 | 318 | 5.2 | 9.6 | 0.00 | 0.00 | 0.00 | 74 | 1014.8 |
| 20260502091505 | 58 | 244 | 4.3 | 11.3 | 0.00 | 0.00 | 0.00 | 78 | 1015.4 |
| 20260502080108 | 57 | 231 | 4.3 | 10.4 | 0.00 | 0.00 | 0.00 | 79 | 1015.1 |
| 20260502070058 | 52 | 250 | 4.3 | 11.3 | 0.00 | 0.00 | 0.00 | 85 | 1015.3 |
| 20260502064551 | 52 | 239 | 4.3 | 13.0 | 0.00 | 0.00 | 0.00 | 85 | 1015.3 |
| 20260502063053 | 52 | 242 | 5.2 | 10.4 | 0.00 | 0.00 | 0.00 | 86 | 1015.3 |
| 20260502061544 | 52 | 253 | 3.5 | 10.4 | 0.00 | 0.00 | 0.00 | 85 | 1015.3 |
| 20260502060042 | 52 | 235 | 4.3 | 7.8 | 0.00 | 0.00 | 0.00 | 85 | 1015.4 |
| 20260502054542 | 52 | 227 | 4.3 | 7.0 | 0.00 | 0.00 | 0.00 | 86 | 1015.4 |
| 20260502053037 | 51 | 214 | 2.6 | 7.0 | 0.00 | 0.00 | 0.00 | 85 | 1015.4 |
| 20260502051541 | 52 | 206 | 1.7 | 10.4 | 0.00 | 0.00 | 0.00 | 85 | 1015.4 |
| 20260502050034 | 52 | 248 | 2.6 | 8.7 | 0.00 | 0.00 | 0.00 | 85 | 1015.3 |
| 20260502044531 | 52 | 262 | 2.6 | 6.1 | 0.00 | 0.00 | 0.00 | 85 | 1015.2 |
| 20260502043031 | 52 | 213 | 2.6 | 7.8 | 0.00 | 0.00 | 0.00 | 84 | 1015.2 |
| 20260502041528 | 53 | 263 | 3.5 | 8.7 | 0.00 | 0.00 | 0.00 | 85 | 1015.3 |
| 20260502040029 | 53 | 239 | 2.6 | 6.1 | 0.00 | 0.00 | 0.00 | 83 | 1015.3 |
| 20260502034528 | 53 | 256 | 4.3 | 10.4 | 0.00 | 0.00 | 0.00 | 83 | 1015.4 |
| 20260502033022 | 53 | 241 | 2.6 | 7.8 | 0.00 | 0.00 | 0.00 | 83 | 1015.4 |
| 20260502031521 | 54 | 231 | 2.6 | 7.8 | 0.00 | 0.00 | 0.00 | 82 | 1015.4 |
| 20260502030019 | 54 | 237 | 3.5 | 7.8 | 0.00 | 0.00 | 0.00 | 83 | 1015.5 |
| 20260502024517 | 54 | 254 | 1.7 | 8.7 | 0.00 | 0.00 | 0.00 | 84 | 1015.5 |
| 20260502023016 | 54 | 252 | 2.6 | 7.8 | 0.00 | 0.00 | 0.00 | 85 | 1015.6 |
| 20260502021514 | 55 | 248 | 2.6 | 7.0 | 0.00 | 0.00 | 0.00 | 86 | 1015.6 |
| 20260502020013 | 55 | 252 | 2.6 | 6.1 | 0.00 | 0.00 | 0.00 | 87 | 1015.7 |
| 20260502014512 | 54 | 244 | 1.7 | 5.2 | 0.00 | 0.00 | 0.00 | 88 | 1015.7 |
| 20260502013009 | 53 | 195 | 0.0 | 2.6 | 0.00 | 0.00 | 0.00 | 89 | 1015.8 |
| 20260502011519 | 53 | 181 | 0.9 | 1.7 | 0.00 | 0.00 | 0.00 | 89 | 1016.0 |
| 20260502010012 | 53 | 181 | 0.0 | 0.9 | 0.00 | 0.00 | 0.00 | 88 | 1016.1 |
| 20260502004505 | 53 | 181 | 0.0 | 1.7 | 0.00 | 0.00 | 0.00 | 88 | 1016.1 |
| 20260502003004 | 53 | 181 | 0.0 | 0.9 | 0.00 | 0.00 | 0.00 | 87 | 1016.2 |
| 20260502001502 | 53 | 181 | 0.0 | 1.7 | 0.00 | 0.00 | 0.00 | 87 | 1016.2 |
| 20260502000002 | 54 | 181 | 0.0 | 0.9 | 0.00 | 0.00 | 0.00 | 86 | 1016.1 |
| 20260501234609 | 54 | 181 | 0.0 | 2.6 | 0.00 | 0.00 | 0.00 | 87 | 1016.2 |
| 20260501233104 | 53 | 181 | 0.0 | 0.0 | 0.00 | 0.00 | 0.00 | 86 | 1016.3 |
| 20260501231559 | 53 | 181 | 0.0 | 2.6 | 0.00 | 0.00 | 0.00 | 85 | 1016.4 |
| 20260501230059 | 53 | 181 | 0.0 | 3.5 | 0.00 | 0.00 | 0.00 | 84 | 1016.4 |
| 20260501224558 | 54 | 209 | 0.0 | 1.7 | 0.00 | 0.00 | 0.00 | 83 | 1016.5 |
| 20260501223058 | 55 | 208 | 0.0 | 3.5 | 0.00 | 0.00 | 0.00 | 82 | 1016.4 |
| 20260501221556 | 55 | 205 | 2.6 | 4.3 | 0.00 | 0.00 | 0.00 | 82 | 1016.3 |
| 20260501220136 | 55 | 194 | 2.6 | 5.2 | 0.00 | 0.00 | 0.00 | 81 | 1016.3 |
| 20260501214556 | 55 | 222 | 2.6 | 5.2 | 0.00 | 0.00 | 0.00 | 80 | 1016.3 |
| 20260501213102 | 56 | 167 | 1.7 | 4.3 | 0.00 | 0.00 | 0.00 | 77 | 1016.2 |
| 20260501211555 | 58 | 164 | 1.7 | 4.3 | 0.00 | 0.00 | 0.00 | 74 | 1016.2 |
| 20260501210115 | 58 | 163 | 3.5 | 6.1 | 0.00 | 0.00 | 0.00 | 73 | 1016.3 |
| 20260501204557 | 58 | 228 | 0.0 | 7.8 | 0.00 | 0.00 | 0.00 | 72 | 1016.5 |
| 20260501203056 | 59 | 226 | 3.5 | 8.7 | 0.00 | 0.00 | 0.00 | 70 | 1016.5 |
| 20260501201557 | 60 | 163 | 6.1 | 11.3 | 0.00 | 0.00 | 0.00 | 68 | 1016.0 |
| 20260501200053 | 59 | 121 | 6.1 | 10.4 | 0.00 | 0.00 | 0.00 | 68 | 1016.1 |
| 20260501194552 | 59 | 146 | 6.1 | 12.2 | 0.00 | 0.00 | 0.00 | 68 | 1016.1 |
| 20260501193051 | 59 | 121 | 7.0 | 11.3 | 0.00 | 0.00 | 0.00 | 69 | 1016.2 |
| 20260501191558 | 59 | 143 | 7.8 | 12.2 | 0.00 | 0.00 | 0.00 | 69 | 1016.1 |
| 20260501190101 | 59 | 139 | 7.0 | 11.3 | 0.00 | 0.00 | 0.00 | 69 | 1016.2 |
| 20260501184549 | 60 | 148 | 7.0 | 13.9 | 0.00 | 0.00 | 0.00 | 69 | 1016.2 |
| 20260501183059 | 60 | 122 | 7.8 | 14.8 | 0.00 | 0.00 | 0.00 | 69 | 1016.2 |
| 20260501181602 | 61 | 136 | 7.0 | 13.9 | 0.00 | 0.00 | 0.00 | 68 | 1016.3 |
| 20260501180046 | 61 | 141 | 8.7 | 15.6 | 0.00 | 0.00 | 0.00 | 68 | 1016.3 |
| 20260501174545 | 62 | 143 | 8.7 | 14.8 | 0.00 | 0.00 | 0.00 | 66 | 1016.4 |
| 20260501173048 | 63 | 151 | 8.7 | 13.9 | 0.00 | 0.00 | 0.00 | 64 | 1016.4 |
| 20260501171542 | 63 | 162 | 8.7 | 13.9 | 0.00 | 0.00 | 0.00 | 63 | 1016.5 |
| 20260501170049 | 64 | 132 | 7.8 | 15.6 | 0.00 | 0.00 | 0.00 | 61 | 1016.6 |
| 20260501164544 | 65 | 121 | 7.0 | 12.2 | 0.00 | 0.00 | 0.00 | 62 | 1016.7 |
| 20260501163045 | 65 | 128 | 6.1 | 13.9 | 0.00 | 0.00 | 0.00 | 61 | 1016.7 |
| 20260501161534 | 65 | 104 | 7.8 | 13.9 | 0.00 | 0.00 | 0.00 | 59 | 1016.9 |